GW0801 Weather Reports


time (UTC)temp
C
wind
direction
speed
KPH
gust
KPH
rain 1hr
cm
rain 24hr
cm
rain mn
cm
humidity
%
barometer
mb
20260505224259 20 314 4.8 22.5 0.00 0.10 0.10 29 1014.8
20260505223757 20 152 14.5 30.6 0.00 0.10 0.10 30 1014.8
20260505223253 20 147 17.7 30.6 0.00 0.10 0.10 27 1015.0
20260505222749 20 205 17.7 32.2 0.00 0.10 0.10 27 1015.1
20260505222246 20 59 4.8 33.8 0.00 0.10 0.10 29 1015.3
20260505221743 21 180 12.9 30.6 0.00 0.10 0.10 28 1015.0
20260505221239 20 156 12.9 27.4 0.00 0.10 0.10 28 1015.5
20260505220736 20 247 11.3 22.5 0.00 0.10 0.10 29 1015.4
20260505220233 21 324 11.3 16.1 0.00 0.10 0.10 27 1015.4
20260505215732 21 317 6.4 25.7 0.00 0.10 0.10 28 1015.5
20260505215229 20 230 16.1 32.2 0.00 0.10 0.10 30 1015.6
20260505214727 20 139 9.7 25.7 0.00 0.10 0.10 30 1015.3
20260505214224 20 156 16.1 37.0 0.00 0.10 0.10 30 1016.1
20260505213721 20 167 30.6 40.2 0.00 0.10 0.10 29 1015.7
20260505213218 20 183 14.5 24.1 0.00 0.10 0.10 29 1015.7
20260505212714 20 146 32.2 41.8 0.00 0.10 0.10 27 1016.0
20260505212212 20 148 8.0 25.7 0.00 0.10 0.10 29 1016.1
20260505211708 20 158 22.5 33.8 0.00 0.10 0.10 27 1016.2
20260505211206 20 159 11.3 25.7 0.00 0.10 0.10 28 1016.2
20260505210702 20 165 11.3 35.4 0.00 0.10 0.10 30 1016.2
20260505210159 20 160 14.5 35.4 0.00 0.10 0.10 32 1016.4
20260505205657 20 255 14.5 24.1 0.00 0.10 0.10 32 1016.3
20260505205154 19 159 20.9 33.8 0.00 0.10 0.10 34 1016.4
20260505204651 19 170 12.9 37.0 0.00 0.10 0.10 33 1016.5
20260505204149 19 127 12.9 35.4 0.00 0.10 0.10 33 1016.4
20260505203646 19 123 11.3 37.0 0.00 0.10 0.10 34 1016.4
20260505203142 18 130 14.5 33.8 0.00 0.10 0.10 34 1016.5
20260505202638 19 157 24.1 33.8 0.00 0.10 0.10 35 1016.6
20260505202134 19 164 24.1 35.4 0.00 0.10 0.10 35 1016.6
20260505201631 19 137 20.9 45.1 0.00 0.10 0.10 37 1016.4
20260505201129 18 119 19.3 32.2 0.00 0.10 0.10 38 1016.5
20260505200627 18 138 30.6 33.8 0.00 0.10 0.10 41 1016.6
20260505200124 19 172 9.7 41.8 0.00 0.10 0.10 40 1017.0
20260505195620 18 145 11.3 27.4 0.00 0.10 0.10 41 1017.0
20260505195117 19 161 20.9 45.1 0.00 0.10 0.10 39 1017.0
20260505194614 18 188 6.4 33.8 0.00 0.10 0.10 42 1017.1
20260505194110 18 160 16.1 32.2 0.00 0.10 0.10 42 1017.1
20260505193607 18 198 27.4 29.0 0.00 0.10 0.10 42 1017.2
20260505193104 17 174 12.9 22.5 0.00 0.10 0.10 48 1017.1
20260505192603 17 169 19.3 20.9 0.00 0.10 0.10 46 1017.3
20260505192100 17 149 6.4 29.0 0.00 0.10 0.10 46 1017.2
20260505191558 18 149 17.7 35.4 0.00 0.10 0.10 44 1017.6
20260505191055 17 160 25.7 30.6 0.00 0.10 0.10 45 1017.5
20260505190550 18 164 17.7 35.4 0.00 0.10 0.10 44 1017.8
20260505190046 18 179 24.1 43.5 0.00 0.10 0.10 45 1017.5
20260505185543 18 151 11.3 33.8 0.00 0.10 0.10 44 1017.7
20260505185039 18 148 12.9 24.1 0.00 0.10 0.10 44 1017.8
20260505184536 18 115 11.3 27.4 0.00 0.10 0.10 46 1017.6
20260505184033 18 151 14.5 38.6 0.00 0.10 0.10 46 1017.8
20260505183530 18 187 17.7 29.0 0.00 0.10 0.10 46 1018.0
20260505183027 17 156 20.9 27.4 0.00 0.10 0.10 48 1017.7
20260505182523 18 193 11.3 17.7 0.00 0.10 0.10 48 1017.8
20260505182020 17 154 14.5 30.6 0.00 0.10 0.10 49 1017.8
20260505181517 17 160 27.4 37.0 0.00 0.10 0.10 49 1018.2
20260505181015 17 158 17.7 35.4 0.00 0.10 0.10 49 1018.3
20260505180510 17 145 14.5 35.4 0.00 0.10 0.10 50 1018.0
20260505180008 17 146 12.9 30.6 0.00 0.10 0.10 50 1018.0
20260505175503 17 160 14.5 27.4 0.00 0.10 0.10 51 1018.2
20260505175000 17 163 9.7 30.6 0.00 0.10 0.10 52 1018.3
20260505174457 17 156 19.3 25.7 0.00 0.10 0.10 51 1018.0
20260505173953 17 146 6.4 16.1 0.00 0.10 0.10 52 1018.2
20260505173450 16 137 19.3 22.5 0.00 0.10 0.10 53 1018.3
20260505172947 17 123 24.1 33.8 0.00 0.10 0.10 52 1018.0
20260505172445 16 212 9.7 19.3 0.00 0.10 0.10 53 1018.2
20260505171944 16 203 11.3 17.7 0.00 0.10 0.10 55 1018.0
20260505171441 16 181 8.0 14.5 0.00 0.10 0.10 56 1018.2
20260505170938 15 160 4.8 17.7 0.00 0.10 0.10 57 1018.3
20260505170435 15 154 14.5 20.9 0.00 0.10 0.10 59 1018.2
20260505165930 15 157 9.7 24.1 0.00 0.10 0.10 58 1018.4
20260505165426 15 146 9.7 20.9 0.00 0.10 0.10 59 1018.4
20260505164921 15 147 11.3 22.5 0.00 0.10 0.10 59 1018.3
20260505164418 15 154 9.7 17.7 0.00 0.10 0.10 58 1018.0
20260505163916 15 135 11.3 29.0 0.00 0.10 0.10 61 1017.8
20260505163415 15 218 11.3 14.5 0.00 0.10 0.10 62 1017.9
20260505162914 14 164 14.5 22.5 0.00 0.10 0.10 64 1018.0
20260505162409 14 138 12.9 22.5 0.00 0.10 0.10 63 1017.9
20260505161907 15 127 9.7 17.7 0.00 0.10 0.10 62 1018.2
20260505161403 15 161 9.7 27.4 0.00 0.10 0.10 63 1017.8
20260505160900 15 238 9.7 14.5 0.00 0.10 0.10 63 1017.7
20260505160359 14 154 4.8 20.9 0.00 0.10 0.10 63 1017.7
20260505153337 13 207 4.8 24.1 0.00 0.10 0.10 69 1017.8
20260505152834 13 201 6.4 14.5 0.00 0.10 0.10 71 1017.9
20260505152331 13 172 3.2 16.1 0.00 0.10 0.10 72 1017.7
20260505151826 13 308 4.8 24.1 0.00 0.10 0.10 72 1017.6
20260505151323 12 118 9.7 9.7 0.00 0.10 0.10 74 1017.6
20260505150820 12 102 4.8 11.3 0.00 0.10 0.10 76 1017.6
20260505150317 12 186 3.2 12.9 0.00 0.10 0.10 76 1017.3
20260505140241 11 148 4.8 6.4 0.00 0.10 0.10 88 1017.3
20260505130205 10 108 1.6 3.2 0.05 0.05 0.05 90 1016.4
20260505124655 10 103 3.2 4.8 0.05 0.03 0.03 87 1017.0
20260505124151 10 87 4.8 4.8 0.00 0.00 0.00 87 1016.9
20260505123647 10 129 3.2 3.2 0.00 0.00 0.00 87 1016.9
20260505123145 10 131 0.0 4.8 0.00 0.00 0.00 87 1016.8
20260505122641 10 116 4.8 6.4 0.00 0.00 0.00 87 1016.4
20260505122138 10 110 6.4 8.0 0.00 0.00 0.00 87 1016.5
20260505121635 10 95 4.8 8.0 0.00 0.00 0.00 86 1016.3
20260505121132 10 86 4.8 4.8 0.00 0.00 0.00 88 1016.6
20260505120627 10 125 4.8 6.4 0.00 0.00 0.00 89 1016.9
20260505120124 10 97 3.2 4.8 0.00 0.00 0.00 88 1017.0
20260505115618 10 115 3.2 3.2 0.00 0.00 0.00 88 1017.0
20260505115116 10 136 1.6 3.2 0.00 0.00 0.00 88 1017.0
20260505114612 10 124 3.2 4.8 0.00 0.00 0.00 87 1017.0
20260505114109 10 119 1.6 3.2 0.00 0.00 0.00 86 1017.0
20260505113605 11 115 3.2 3.2 0.00 0.00 0.00 83 1017.2
20260505113102 11 283 0.0 0.0 0.05 0.00 0.00 78 1017.1
20260505112558 11 246 0.0 3.2 0.00 0.00 0.00 79 1017.6
20260505112056 11 173 0.0 1.6 0.00 0.00 0.00 81 1017.2
20260505111550 10 298 0.0 6.4 0.00 0.00 0.00 81 1017.6
20260505111046 11 227 1.6 3.2 0.00 0.00 0.00 82 1017.2
20260505110543 10 279 1.6 4.8 0.00 0.00 0.00 83 1017.2
20260505102015 11 299 17.7 19.3 0.00 0.00 0.00 82 1018.4
20260505101514 11 316 12.9 17.7 0.00 0.00 0.00 82 1018.0
20260505101010 11 295 9.7 20.9 0.00 0.00 0.00 81 1018.0
20260505100507 11 316 17.7 22.5 0.00 0.00 0.00 80 1017.9
20260505100004 11 312 17.7 25.7 0.00 0.00 0.00 79 1018.0
20260505095500 11 302 12.9 19.3 0.00 0.00 0.00 78 1018.2
20260505094956 11 306 9.7 17.7 0.00 0.00 0.00 78 1018.4
20260505094453 11 280 12.9 19.3 0.00 0.00 0.00 77 1018.4
20260505093949 11 293 14.5 20.9 0.00 0.00 0.00 77 1018.3
20260505093446 12 301 20.9 24.1 0.00 0.00 0.00 75 1018.4
20260505092943 12 314 24.1 33.8 0.00 0.00 0.00 75 1017.8
20260505092441 12 305 24.1 27.4 0.00 0.00 0.00 74 1018.2
20260505091938 12 293 12.9 19.3 0.00 0.00 0.00 73 1018.6
20260505091436 12 311 11.3 19.3 0.00 0.00 0.00 71 1018.6
20260505090933 12 301 9.7 12.9 0.00 0.00 0.00 70 1018.7
20260505090432 12 291 8.0 14.5 0.00 0.00 0.00 69 1018.7
20260505085928 12 285 11.3 14.5 0.00 0.00 0.00 69 1018.7
20260505085426 12 286 12.9 14.5 0.00 0.00 0.00 69 1018.5
20260505084924 12 284 8.0 11.3 0.00 0.00 0.00 69 1018.7
20260505084422 12 288 9.7 17.7 0.00 0.00 0.00 68 1018.7
20260505083920 12 303 9.7 17.7 0.00 0.00 0.00 68 1018.7
20260505083417 12 293 17.7 17.7 0.00 0.00 0.00 67 1019.0
20260505082913 12 287 6.4 17.7 0.00 0.00 0.00 65 1019.1
20260505082409 12 267 12.9 20.9 0.00 0.00 0.00 63 1019.0
20260505081906 12 271 9.7 11.3 0.00 0.00 0.00 64 1019.0
20260505081403 12 263 8.0 9.7 0.00 0.00 0.00 65 1018.9
20260505080900 12 302 8.0 12.9 0.00 0.00 0.00 65 1019.2
20260505080355 12 320 12.9 14.5 0.00 0.00 0.00 64 1019.0
20260505075851 12 299 4.8 11.3 0.00 0.00 0.00 64 1019.3
20260505075348 12 301 11.3 17.7 0.00 0.00 0.00 62 1019.2
20260505074846 12 319 12.9 14.5 0.00 0.00 0.00 60 1019.6
20260505074343 13 267 9.7 16.1 0.00 0.00 0.00 59 1019.2
20260505073840 13 296 6.4 17.7 0.00 0.00 0.00 58 1019.3
20260505073338 13 286 6.4 16.1 0.00 0.00 0.00 56 1019.4
20260505072834 13 298 12.9 19.3 0.00 0.00 0.00 54 1019.4
20260505072331 13 289 9.7 11.3 0.00 0.00 0.00 53 1019.7
20260505071827 13 279 8.0 11.3 0.00 0.00 0.00 51 1019.1
20260505071323 13 276 4.8 8.0 0.00 0.00 0.00 48 1019.7
20260505070822 13 279 4.8 9.7 0.00 0.00 0.00 47 1019.6
20260505070318 13 283 4.8 9.7 0.00 0.00 0.00 47 1019.3
20260505065813 13 274 8.0 9.7 0.00 0.00 0.00 47 1019.3
20260505065310 13 287 11.3 11.3 0.00 0.00 0.00 47 1019.3
20260505064807 13 300 11.3 11.3 0.00 0.00 0.00 46 1019.7
20260505064304 13 301 8.0 12.9 0.00 0.00 0.00 45 1019.3
20260505063802 13 297 4.8 9.7 0.00 0.00 0.00 45 1019.6
20260505063258 13 277 8.0 9.7 0.00 0.00 0.00 45 1019.8
20260505062755 13 293 11.3 12.9 0.00 0.00 0.00 45 1019.8
20260505062252 13 261 6.4 11.3 0.00 0.00 0.00 45 1019.9
20260505061749 13 253 8.0 11.3 0.00 0.00 0.00 44 1019.8
20260505061247 13 276 6.4 9.7 0.00 0.00 0.00 44 1019.9
20260505060744 13 251 4.8 6.4 0.00 0.00 0.00 45 1019.4
20260505060241 13 264 3.2 4.8 0.00 0.00 0.00 44 1019.6
20260505055736 13 266 3.2 6.4 0.00 0.00 0.00 44 1019.4
20260505055233 13 255 4.8 9.7 0.00 0.00 0.00 44 1019.6
20260505054730 13 267 4.8 8.0 0.00 0.00 0.00 44 1019.3
20260505054228 13 291 4.8 11.3 0.00 0.00 0.00 44 1019.4
20260505053726 13 297 9.7 14.5 0.00 0.00 0.00 45 1019.9
20260505053222 13 289 11.3 14.5 0.00 0.00 0.00 45 1019.9
20260505052720 13 259 3.2 11.3 0.00 0.00 0.00 46 1020.0
20260505052216 13 276 6.4 11.3 0.00 0.00 0.00 45 1019.9
20260505051714 13 288 6.4 14.5 0.00 0.00 0.00 45 1019.9
20260505051212 13 287 12.9 16.1 0.00 0.00 0.00 44 1019.9
20260505050709 13 275 11.3 14.5 0.00 0.00 0.00 45 1019.8
20260505050207 13 264 11.3 17.7 0.00 0.00 0.00 45 1019.7
20260505041637 13 290 22.5 22.5 0.00 0.00 0.00 45 1019.3
20260505041134 13 303 25.7 25.7 0.00 0.00 0.00 45 1019.1
20260505040631 13 286 12.9 27.4 0.00 0.00 0.00 45 1019.8
20260505040128 13 281 16.1 24.1 0.00 0.00 0.00 45 1020.0
20260505035624 13 288 11.3 24.1 0.00 0.00 0.00 45 1019.9
20260505035121 13 265 11.3 25.7 0.00 0.00 0.00 44 1019.9
20260505034618 13 297 12.9 27.4 0.00 0.00 0.00 44 1019.9
20260505034114 14 293 24.1 32.2 0.00 0.00 0.00 43 1019.7
20260505033611 14 308 17.7 29.0 0.00 0.00 0.00 43 1019.7
20260505033110 14 272 29.0 32.2 0.00 0.00 0.00 43 1019.6
20260505032607 15 301 29.0 37.0 0.00 0.00 0.00 42 1019.3
20260505032103 15 280 14.5 19.3 0.00 0.00 0.00 42 1019.6
20260505031601 15 313 20.9 29.0 0.00 0.00 0.00 42 1019.0
20260505031057 15 288 17.7 25.7 0.00 0.00 0.00 40 1019.2
20260505030554 15 281 14.5 25.7 0.00 0.00 0.00 39 1019.1
20260505030050 15 293 14.5 22.5 0.00 0.00 0.00 38 1018.9
20260505025546 15 302 11.3 25.7 0.00 0.00 0.00 38 1018.6
20260505025045 16 297 17.7 27.4 0.00 0.00 0.00 37 1018.4
20260505024541 16 297 20.9 24.1 0.00 0.00 0.00 37 1018.6
20260505024038 16 271 14.5 30.6 0.00 0.00 0.00 36 1018.5
20260505023536 16 307 14.5 22.5 0.00 0.00 0.00 35 1018.5
20260505023033 16 284 12.9 20.9 0.00 0.00 0.00 34 1018.3
20260505022531 16 289 12.9 20.9 0.00 0.00 0.00 33 1018.2
20260505022028 17 297 9.7 22.5 0.00 0.00 0.00 32 1018.2
20260505021524 17 295 12.9 22.5 0.00 0.00 0.00 31 1018.0
20260505021020 17 288 14.5 27.4 0.00 0.00 0.00 31 1018.5
20260505020515 17 276 12.9 25.7 0.00 0.00 0.00 31 1018.2
20260505020013 17 279 11.3 24.1 0.00 0.00 0.00 30 1018.4
20260505015509 17 296 9.7 19.3 0.00 0.00 0.00 30 1018.3
20260505015006 18 283 12.9 20.9 0.00 0.00 0.00 29 1018.0
20260505014503 18 296 16.1 22.5 0.00 0.00 0.00 29 1018.2
20260505014001 18 271 12.9 27.4 0.00 0.00 0.00 29 1018.0
20260505013457 18 301 11.3 22.5 0.00 0.00 0.00 29 1017.8
20260505012954 18 269 20.9 25.7 0.00 0.00 0.00 28 1018.0
20260505012453 19 298 20.9 24.1 0.00 0.00 0.00 28 1017.9
20260505011949 20 283 8.0 35.4 0.00 0.00 0.00 28 1018.2
20260505011445 20 285 19.3 30.6 0.00 0.00 0.00 28 1018.2
20260505010942 20 311 17.7 27.4 0.00 0.00 0.00 28 1018.3
20260505010438 20 305 20.9 32.2 0.00 0.00 0.00 28 1018.0
20260505005934 20 314 29.0 33.8 0.00 0.00 0.00 27 1018.3
20260505005431 20 274 16.1 20.9 0.00 0.00 0.00 26 1018.3
20260505004929 21 212 14.5 19.3 0.00 0.00 0.00 25 1017.9
20260505004425 21 252 9.7 19.3 0.00 0.00 0.00 26 1018.2
20260505003922 21 229 14.5 19.3 0.00 0.00 0.00 26 1018.4
20260505003419 21 233 14.5 29.0 0.00 0.00 0.00 26 1018.3
20260505002915 21 209 8.0 25.7 0.00 0.00 0.00 26 1018.4
20260505002412 21 240 17.7 25.7 0.00 0.00 0.00 26 1018.3
20260505001910 21 247 12.9 32.2 0.00 0.00 0.00 26 1018.0
20260505001407 22 257 17.7 27.4 0.00 0.00 0.00 25 1018.0
20260505000904 21 242 16.1 35.4 0.00 0.00 0.00 24 1018.3
20260505000402 21 266 12.9 30.6 0.00 0.00 0.00 25 1018.4
20260504235859 21 228 14.5 27.4 0.00 0.00 0.00 25 1018.5
20260504235356 21 243 16.1 24.1 0.00 0.00 0.00 24 1018.3
20260504234852 21 234 20.9 29.0 0.00 0.00 0.00 24 1018.3
20260504234350 21 271 14.5 38.6 0.00 0.00 0.00 24 1018.2
20260504233846 21 205 9.7 17.7 0.00 0.00 0.00 23 1018.2
20260504233342 21 250 19.3 32.2 0.00 0.00 0.00 23 1018.4
20260504232839 21 235 8.0 27.4 0.00 0.00 0.00 23 1018.3
20260504232336 21 238 25.7 30.6 0.00 0.00 0.00 23 1018.4
20260504231833 21 275 17.7 22.5 0.00 0.00 0.00 22 1018.4
20260504231329 21 259 24.1 38.6 0.00 0.00 0.00 22 1018.4
20260504230825 21 240 16.1 24.1 0.00 0.00 0.00 21 1018.2
20260504230323 21 251 25.7 29.0 0.00 0.00 0.00 21 1018.0
20260504225822 21 265 32.2 32.2 0.00 0.00 0.00 21 1018.4
20260504225318 22 233 25.7 27.4 0.00 0.00 0.00 20 1018.2
20260504224815 22 223 22.5 29.0 0.00 0.00 0.00 20 1018.3